Time,TemperatureF,DewpointF,PressureIn,WindDirection,WindDirectionDegrees,WindSpeedMPH,WindSpeedGustMPH,Humidity,HourlyPrecipIn,Conditions,Clouds,dailyrainin,SoftwareType,DateUTC
2013-03-09 00:00:00,32.6,26.8,30.05,ENE,68,2.5,2.5,79,0.00,,,0.00,WUHU216HW,2013-03-09 06:00:00,
2013-03-09 00:05:00,32.6,26.8,30.05,ESE,113,4.0,4.0,79,0.00,,,0.00,WUHU216HW,2013-03-09 06:05:00,
2013-03-09 00:10:00,32.6,26.8,30.05,ESE,113,4.0,4.0,79,0.00,,,0.00,WUHU216HW,2013-03-09 06:10:00,
2013-03-09 00:30:00,32.9,26.8,30.05,SE,135,4.3,4.3,78,0.00,,,0.00,WUHU216HW,2013-03-09 06:30:00,
2013-03-09 00:35:00,32.9,26.8,30.05,SE,135,4.3,4.3,78,0.00,,,0.00,WUHU216HW,2013-03-09 06:35:00,
2013-03-09 00:40:00,32.9,26.8,30.05,SE,135,4.3,4.3,78,0.00,,,0.00,WUHU216HW,2013-03-09 06:40:00,
2013-03-09 01:00:00,33.5,27.3,30.05,SSE,158,6.0,6.0,78,0.00,,,0.00,WUHU216HW,2013-03-09 07:00:00,
2013-03-09 01:05:00,33.5,27.3,30.05,SSE,158,6.0,6.0,78,0.00,,,0.00,WUHU216HW,2013-03-09 07:05:00,
2013-03-09 01:10:00,33.5,27.3,30.05,SSE,158,6.0,6.0,78,0.00,,,0.00,WUHU216HW,2013-03-09 07:10:00,
2013-03-09 01:30:00,33.8,27.3,30.03,SE,135,4.0,4.0,77,0.00,,,0.00,WUHU216HW,2013-03-09 07:30:00,
2013-03-09 01:35:00,33.8,27.6,30.04,ESE,113,3.1,5.4,78,0.00,,,0.00,WUHU216HW,2013-03-09 07:35:00,
2013-03-09 01:40:00,33.8,27.6,30.04,ESE,113,3.1,5.4,78,0.00,,,0.00,WUHU216HW,2013-03-09 07:40:00,
2013-03-09 02:00:00,33.8,27.6,30.02,SE,135,2.9,2.9,78,0.00,,,0.00,WUHU216HW,2013-03-09 08:00:00,
2013-03-09 02:05:00,33.8,27.6,30.02,ESE,113,4.0,4.0,78,0.00,,,0.00,WUHU216HW,2013-03-09 08:05:00,
2013-03-09 02:10:00,33.8,27.6,30.02,ESE,113,4.0,4.0,78,0.00,,,0.00,WUHU216HW,2013-03-09 08:10:00,
2013-03-09 02:30:00,34.2,27.6,30.00,SE,135,3.4,3.4,77,0.00,,,0.00,WUHU216HW,2013-03-09 08:30:00,
2013-03-09 02:35:00,34.2,27.6,30.00,SE,135,3.4,3.4,77,0.00,,,0.00,WUHU216HW,2013-03-09 08:35:00,
2013-03-09 02:40:00,34.2,27.6,30.00,SE,135,3.4,3.4,77,0.00,,,0.00,WUHU216HW,2013-03-09 08:40:00,
2013-03-09 03:00:00,34.4,28.2,29.98,ESE,113,6.0,6.0,78,0.00,,,0.00,WUHU216HW,2013-03-09 09:00:00,
2013-03-09 03:05:00,34.4,28.2,29.98,SE,135,6.3,6.3,78,0.00,,,0.00,WUHU216HW,2013-03-09 09:05:00,
2013-03-09 03:10:00,34.4,28.2,29.98,SE,135,6.3,6.3,78,0.00,,,0.00,WUHU216HW,2013-03-09 09:10:00,
2013-03-09 03:30:00,33.8,27.6,29.96,ESE,113,6.9,6.9,78,0.03,,,0.00,WUHU216HW,2013-03-09 09:30:00,
2013-03-09 03:35:00,33.8,27.9,29.96,ESE,113,6.9,6.9,79,0.03,,,0.03,WUHU216HW,2013-03-09 09:35:00,
2013-03-09 03:40:00,33.8,27.9,29.96,ESE,113,6.9,6.9,79,0.03,,,0.03,WUHU216HW,2013-03-09 09:40:00,
2013-03-09 04:00:00,33.5,27.6,29.95,SE,135,8.7,8.7,79,0.08,,,0.03,WUHU216HW,2013-03-09 10:00:00,
2013-03-09 04:05:00,33.5,27.6,29.95,SE,135,8.5,10.3,79,0.08,,,0.08,WUHU216HW,2013-03-09 10:05:00,
2013-03-09 04:10:00,33.5,27.6,29.95,SE,135,8.5,10.3,79,0.08,,,0.08,WUHU216HW,2013-03-09 10:10:00,
2013-03-09 04:30:00,33.7,27.8,29.93,ESE,113,5.6,5.6,79,0.10,,,0.08,WUHU216HW,2013-03-09 10:30:00,
2013-03-09 04:35:00,33.7,27.8,29.93,ESE,113,5.6,5.6,79,0.10,,,0.13,WUHU216HW,2013-03-09 10:35:00,
2013-03-09 04:40:00,33.7,27.8,29.93,ESE,113,5.6,5.6,79,0.10,,,0.13,WUHU216HW,2013-03-09 10:40:00,
2013-03-09 05:00:00,33.5,27.9,29.92,SSE,158,6.7,6.7,80,0.11,,,0.13,WUHU216HW,2013-03-09 11:00:00,
2013-03-09 05:05:00,33.5,27.9,29.92,SSE,158,5.8,6.7,80,0.10,,,0.19,WUHU216HW,2013-03-09 11:05:00,
2013-03-09 05:10:00,33.5,27.9,29.92,SSE,158,5.8,6.7,80,0.10,,,0.19,WUHU216HW,2013-03-09 11:10:00,
2013-03-09 05:30:00,33.5,27.9,29.91,SE,135,11.4,11.4,80,0.11,,,0.19,WUHU216HW,2013-03-09 11:30:00,
2013-03-09 05:35:00,33.5,27.9,29.91,SE,135,9.6,11.4,80,0.11,,,0.24,WUHU216HW,2013-03-09 11:35:00,
2013-03-09 05:40:00,33.5,27.9,29.91,SE,135,9.6,11.4,80,0.11,,,0.24,WUHU216HW,2013-03-09 11:40:00,
2013-03-09 06:00:00,33.8,28.3,29.91,SE,135,5.4,5.4,80,0.07,,,0.24,WUHU216HW,2013-03-09 12:00:00,
2013-03-09 06:05:00,33.8,28.3,29.91,SE,135,5.6,5.6,80,0.06,,,0.26,WUHU216HW,2013-03-09 12:05:00,
2013-03-09 06:10:00,33.8,28.3,29.91,SE,135,5.6,5.6,80,0.06,,,0.26,WUHU216HW,2013-03-09 12:10:00,
2013-03-09 06:30:00,34.0,28.4,29.90,SE,135,8.1,8.1,80,0.05,,,0.26,WUHU216HW,2013-03-09 12:30:00,
2013-03-09 06:35:00,34.0,28.4,29.90,SE,135,8.1,8.1,80,0.05,,,0.29,WUHU216HW,2013-03-09 12:35:00,
2013-03-09 06:40:00,34.0,28.4,29.90,SE,135,8.1,8.1,80,0.05,,,0.29,WUHU216HW,2013-03-09 12:40:00,
2013-03-09 07:00:00,34.0,28.4,29.89,ESE,113,4.0,4.0,80,0.04,,,0.29,WUHU216HW,2013-03-09 13:00:00,
2013-03-09 07:05:00,34.0,28.4,29.89,ENE,68,2.9,4.0,80,0.04,,,0.30,WUHU216HW,2013-03-09 13:05:00,
2013-03-09 07:10:00,34.0,28.4,29.89,ENE,68,2.9,4.0,80,0.04,,,0.30,WUHU216HW,2013-03-09 13:10:00,
2013-03-09 07:30:00,34.0,28.7,29.87,East,90,3.4,3.4,81,0.01,,,0.30,WUHU216HW,2013-03-09 13:30:00,
2013-03-09 07:35:00,34.0,28.7,29.88,SE,135,2.5,3.4,81,0.01,,,0.30,WUHU216HW,2013-03-09 13:35:00,
2013-03-09 07:40:00,34.0,28.7,29.88,SE,135,2.5,3.4,81,0.01,,,0.30,WUHU216HW,2013-03-09 13:40:00,
2013-03-09 08:00:00,34.6,29.3,29.86,SSE,158,5.8,5.8,81,0.01,,,0.30,WUHU216HW,2013-03-09 14:00:00,
2013-03-09 08:05:00,34.6,29.3,29.86,ESE,113,6.3,6.3,81,0.01,,,0.31,WUHU216HW,2013-03-09 14:05:00,
2013-03-09 08:10:00,34.6,29.3,29.86,ESE,113,6.3,6.3,81,0.01,,,0.31,WUHU216HW,2013-03-09 14:10:00,
2013-03-09 08:30:00,34.9,29.6,29.85,ESE,113,5.1,5.1,81,0.02,,,0.31,WUHU216HW,2013-03-09 14:30:00,
2013-03-09 08:35:00,34.9,29.6,29.85,East,90,5.1,5.1,81,0.02,,,0.32,WUHU216HW,2013-03-09 14:35:00,
2013-03-09 08:40:00,34.9,29.6,29.85,East,90,5.1,5.1,81,0.02,,,0.32,WUHU216HW,2013-03-09 14:40:00,
2013-03-09 09:00:00,35.1,29.5,29.84,SSE,158,7.6,7.6,80,0.02,,,0.32,WUHU216HW,2013-03-09 15:00:00,
2013-03-09 09:05:00,35.1,29.5,29.84,ESE,113,7.4,7.6,80,0.02,,,0.33,WUHU216HW,2013-03-09 15:05:00,
2013-03-09 09:10:00,35.1,29.5,29.84,ESE,113,7.4,7.6,80,0.02,,,0.33,WUHU216HW,2013-03-09 15:10:00,
2013-03-09 09:30:00,35.3,29.7,29.82,SE,135,6.7,6.7,80,0.02,,,0.33,WUHU216HW,2013-03-09 15:30:00,
2013-03-09 09:35:00,35.3,29.7,29.82,SE,135,6.7,6.7,80,0.02,,,0.34,WUHU216HW,2013-03-09 15:35:00,
2013-03-09 09:40:00,35.3,29.7,29.82,SE,135,6.7,6.7,80,0.02,,,0.34,WUHU216HW,2013-03-09 15:40:00,
2013-03-09 10:00:00,35.6,30.1,29.81,SSE,158,4.7,4.7,80,0.02,,,0.34,WUHU216HW,2013-03-09 16:00:00,
2013-03-09 10:05:00,35.6,30.1,29.81,South,180,4.7,4.7,80,0.01,,,0.35,WUHU216HW,2013-03-09 16:05:00,
2013-03-09 10:10:00,35.6,30.1,29.81,South,180,4.7,4.7,80,0.01,,,0.35,WUHU216HW,2013-03-09 16:10:00,
2013-03-09 10:30:00,35.6,30.1,29.82,SE,135,9.8,9.8,80,0.01,,,0.35,WUHU216HW,2013-03-09 16:30:00,
2013-03-09 10:35:00,35.6,30.1,29.82,SE,135,9.8,9.8,80,0.01,,,0.35,WUHU216HW,2013-03-09 16:35:00,
2013-03-09 11:00:00,35.6,30.1,29.81,SSE,158,6.5,6.5,80,0.01,,,0.35,WUHU216HW,2013-03-09 17:00:00,
2013-03-09 11:05:00,35.6,30.1,29.81,SSE,158,6.5,6.5,80,0.01,,,0.35,WUHU216HW,2013-03-09 17:05:00,
2013-03-09 11:10:00,35.6,30.1,29.81,SSE,158,6.5,6.5,80,0.01,,,0.35,WUHU216HW,2013-03-09 17:10:00,
2013-03-09 11:30:00,35.8,30.2,29.79,ESE,113,6.7,6.7,80,0.01,,,0.36,WUHU216HW,2013-03-09 17:30:00,
2013-03-09 11:35:00,35.8,30.2,29.79,SSE,158,5.4,7.6,80,0.01,,,0.36,WUHU216HW,2013-03-09 17:35:00,
2013-03-09 11:40:00,35.8,30.2,29.79,SSE,158,5.4,7.6,80,0.01,,,0.36,WUHU216HW,2013-03-09 17:40:00,
2013-03-09 12:00:00,36.2,30.6,29.78,ESE,113,4.3,4.3,80,0.00,,,0.36,WUHU216HW,2013-03-09 18:00:00,
2013-03-09 12:05:00,36.2,30.6,29.78,SSE,158,3.6,4.3,80,0.00,,,0.36,WUHU216HW,2013-03-09 18:05:00,
2013-03-09 12:10:00,36.2,30.6,29.78,SSE,158,3.6,3.6,80,0.00,,,0.36,WUHU216HW,2013-03-09 18:10:00,
2013-03-09 12:30:00,36.4,30.8,29.76,ENE,68,4.5,4.5,80,0.00,,,0.36,WUHU216HW,2013-03-09 18:30:00,
2013-03-09 12:35:00,36.4,30.8,29.76,ENE,68,4.5,4.5,80,0.00,,,0.36,WUHU216HW,2013-03-09 18:35:00,
2013-03-09 12:40:00,36.4,30.8,29.76,ENE,68,4.5,4.5,80,0.00,,,0.36,WUHU216HW,2013-03-09 18:40:00,
2013-03-09 13:00:00,36.2,30.6,29.76,SE,135,6.7,6.7,80,0.01,,,0.36,WUHU216HW,2013-03-09 19:00:00,
2013-03-09 13:05:00,36.2,30.6,29.76,South,180,8.5,8.5,80,0.01,,,0.37,WUHU216HW,2013-03-09 19:05:00,
2013-03-09 13:10:00,36.2,30.6,29.76,South,180,8.5,8.5,80,0.01,,,0.37,WUHU216HW,2013-03-09 19:10:00,
2013-03-09 13:30:00,36.4,30.8,29.75,SE,135,7.6,7.6,80,0.05,,,0.37,WUHU216HW,2013-03-09 19:30:00,
2013-03-09 13:35:00,36.2,30.6,29.75,SSE,158,7.2,7.6,80,0.05,,,0.41,WUHU216HW,2013-03-09 19:35:00,
2013-03-09 13:40:00,36.2,30.6,29.75,SSE,158,7.2,7.2,80,0.05,,,0.41,WUHU216HW,2013-03-09 19:40:00,
2013-03-09 14:00:00,36.7,31.1,29.72,SSE,158,5.4,5.4,80,0.07,,,0.41,WUHU216HW,2013-03-09 20:00:00,
2013-03-09 14:05:00,36.5,31.0,29.72,ESE,113,8.7,8.7,80,0.06,,,0.44,WUHU216HW,2013-03-09 20:05:00,
2013-03-09 14:10:00,36.5,31.0,29.72,ESE,113,8.7,8.7,80,0.06,,,0.44,WUHU216HW,2013-03-09 20:10:00,
2013-03-09 14:30:00,36.7,31.1,29.72,ENE,68,2.5,2.5,80,0.04,,,0.44,WUHU216HW,2013-03-09 20:30:00,
2013-03-09 14:35:00,36.5,31.0,29.72,East,90,3.4,3.4,80,0.04,,,0.45,WUHU216HW,2013-03-09 20:35:00,
2013-03-09 14:40:00,36.5,31.0,29.72,East,90,3.4,3.4,80,0.04,,,0.45,WUHU216HW,2013-03-09 20:40:00,
2013-03-09 15:00:00,36.7,31.1,29.70,SSE,158,2.2,2.2,80,0.01,,,0.45,WUHU216HW,2013-03-09 21:00:00,
2013-03-09 15:05:00,36.7,31.1,29.70,SSE,158,2.2,2.2,80,0.01,,,0.45,WUHU216HW,2013-03-09 21:05:00,
2013-03-09 15:10:00,36.7,31.1,29.70,SSE,158,2.2,2.2,80,0.01,,,0.45,WUHU216HW,2013-03-09 21:10:00,
2013-03-09 15:30:00,36.5,31.0,29.70,SE,135,4.9,4.9,80,0.00,,,0.45,WUHU216HW,2013-03-09 21:30:00,
2013-03-09 15:35:00,36.5,31.0,29.70,ESE,113,7.4,7.4,80,0.00,,,0.45,WUHU216HW,2013-03-09 21:35:00,
2013-03-09 15:40:00,36.5,31.0,29.70,ESE,113,7.4,7.4,80,0.00,,,0.45,WUHU216HW,2013-03-09 21:40:00,
2013-03-09 16:00:00,36.4,31.1,29.70,SE,135,5.6,5.6,81,0.01,,,0.45,WUHU216HW,2013-03-09 22:00:00,
2013-03-09 16:05:00,36.4,31.1,29.70,ESE,113,6.3,6.3,81,0.01,,,0.46,WUHU216HW,2013-03-09 22:05:00,
2013-03-09 16:10:00,36.4,31.1,29.70,ESE,113,6.3,6.3,81,0.01,,,0.46,WUHU216HW,2013-03-09 22:10:00,
2013-03-09 16:30:00,36.4,31.1,29.69,ESE,113,2.0,2.0,81,0.02,,,0.46,WUHU216HW,2013-03-09 22:30:00,
2013-03-09 16:35:00,36.4,31.1,29.69,ESE,113,2.5,2.5,81,0.02,,,0.47,WUHU216HW,2013-03-09 22:35:00,
2013-03-09 16:40:00,36.4,31.1,29.69,ESE,113,2.5,2.5,81,0.02,,,0.47,WUHU216HW,2013-03-09 22:40:00,
2013-03-09 17:00:00,36.4,31.1,29.68,SE,135,2.0,2.0,81,0.04,,,0.47,WUHU216HW,2013-03-09 23:00:00,
2013-03-09 17:05:00,36.4,31.1,29.68,ESE,113,3.1,3.1,81,0.04,,,0.50,WUHU216HW,2013-03-09 23:05:00,
2013-03-09 17:10:00,36.4,31.1,29.68,ESE,113,3.1,3.1,81,0.04,,,0.50,WUHU216HW,2013-03-09 23:10:00,
2013-03-09 17:30:00,36.4,31.1,29.70,ESE,113,1.6,1.6,81,0.03,,,0.50,WUHU216HW,2013-03-09 23:30:00,
2013-03-09 17:35:00,36.4,31.1,29.70,ESE,113,1.6,1.6,81,0.03,,,0.50,WUHU216HW,2013-03-09 23:35:00,
2013-03-09 17:40:00,36.4,31.1,29.70,ESE,113,1.6,1.6,81,0.03,,,0.50,WUHU216HW,2013-03-09 23:40:00,
2013-03-09 18:00:00,36.0,30.7,29.69,ESE,113,0.9,0.9,81,0.01,,,0.50,WUHU216HW,2013-03-10 00:00:00,
2013-03-09 18:05:00,36.0,30.7,29.69,ESE,113,1.6,1.6,81,0.01,,,0.52,WUHU216HW,2013-03-10 00:05:00,
2013-03-09 18:10:00,36.0,30.7,29.69,ESE,113,1.6,1.6,81,0.01,,,0.52,WUHU216HW,2013-03-10 00:10:00,
2013-03-09 18:30:00,35.6,30.3,29.70,ENE,68,0.0,0.0,81,0.01,,,0.52,WUHU216HW,2013-03-10 00:30:00,
2013-03-09 18:35:00,35.8,30.5,29.70,ENE,68,0.0,0.0,81,0.01,,,0.52,WUHU216HW,2013-03-10 00:35:00,
2013-03-09 18:40:00,35.8,30.5,29.70,ENE,68,0.0,0.0,81,0.01,,,0.52,WUHU216HW,2013-03-10 00:40:00,
2013-03-09 19:00:00,35.6,30.3,29.71,ENE,68,0.7,0.7,81,0.01,,,0.52,WUHU216HW,2013-03-10 01:00:00,
2013-03-09 19:05:00,35.6,30.3,29.71,ENE,68,0.7,0.7,81,0.01,,,0.52,WUHU216HW,2013-03-10 01:05:00,
2013-03-09 19:10:00,35.6,30.3,29.71,ENE,68,0.7,0.7,81,0.01,,,0.52,WUHU216HW,2013-03-10 01:10:00,
2013-03-09 19:30:00,35.6,30.6,29.70,North,0,0.9,0.9,82,0.01,,,0.52,WUHU216HW,2013-03-10 01:30:00,
2013-03-09 19:35:00,35.6,30.6,29.70,NNE,23,1.3,1.3,82,0.01,,,0.52,WUHU216HW,2013-03-10 01:35:00,
2013-03-09 19:40:00,35.6,30.6,29.70,NNE,23,1.3,1.3,82,0.01,,,0.52,WUHU216HW,2013-03-10 01:40:00,
2013-03-09 20:00:00,35.6,30.6,29.71,NNE,23,0.4,0.4,82,0.00,,,0.52,WUHU216HW,2013-03-10 02:00:00,
2013-03-09 20:05:00,35.6,30.6,29.71,NNE,23,0.4,0.4,82,0.00,,,0.52,WUHU216HW,2013-03-10 02:05:00,
2013-03-09 20:10:00,35.6,30.6,29.71,NNE,23,0.4,0.4,82,0.00,,,0.52,WUHU216HW,2013-03-10 02:10:00,
2013-03-09 20:30:00,35.3,30.2,29.72,ENE,68,0.0,0.0,82,0.00,,,0.52,WUHU216HW,2013-03-10 02:30:00,
2013-03-09 20:35:00,35.3,30.2,29.72,ENE,68,0.0,0.0,82,0.00,,,0.52,WUHU216HW,2013-03-10 02:35:00,
2013-03-09 20:40:00,35.3,30.2,29.72,ENE,68,0.0,0.0,82,0.00,,,0.52,WUHU216HW,2013-03-10 02:40:00,
2013-03-09 21:00:00,34.9,29.9,29.73,North,0,1.1,1.1,82,0.00,,,0.52,WUHU216HW,2013-03-10 03:00:00,
2013-03-09 21:05:00,34.9,29.9,29.73,NNW,338,1.1,1.1,82,0.00,,,0.52,WUHU216HW,2013-03-10 03:05:00,
2013-03-09 21:10:00,34.9,29.9,29.73,NNW,338,1.1,1.1,82,0.00,,,0.52,WUHU216HW,2013-03-10 03:10:00,
2013-03-09 21:30:00,35.1,30.1,29.74,NNW,338,0.4,0.4,82,0.01,,,0.52,WUHU216HW,2013-03-10 03:30:00,
2013-03-09 21:35:00,35.1,30.1,29.74,NNW,338,0.4,0.4,82,0.01,,,0.53,WUHU216HW,2013-03-10 03:35:00,
2013-03-09 21:40:00,35.1,30.1,29.74,NNW,338,0.4,0.4,82,0.01,,,0.53,WUHU216HW,2013-03-10 03:40:00,
2013-03-09 22:00:00,34.9,30.3,29.74,NNW,338,3.6,3.6,83,0.01,,,0.53,WUHU216HW,2013-03-10 04:00:00,
2013-03-09 22:05:00,34.9,30.3,29.74,NW,315,2.5,3.6,83,0.01,,,0.53,WUHU216HW,2013-03-10 04:05:00,
2013-03-09 22:10:00,34.9,30.3,29.74,NW,315,2.5,3.6,83,0.01,,,0.53,WUHU216HW,2013-03-10 04:10:00,
2013-03-09 22:30:00,34.7,30.1,29.75,NNW,338,2.7,2.7,83,0.00,,,0.53,WUHU216HW,2013-03-10 04:30:00,
2013-03-09 22:35:00,34.7,30.1,29.75,NNW,338,2.7,2.7,83,0.00,,,0.53,WUHU216HW,2013-03-10 04:35:00,
2013-03-09 22:40:00,34.7,30.1,29.75,NNW,338,2.7,2.7,83,0.00,,,0.53,WUHU216HW,2013-03-10 04:40:00,
2013-03-09 23:00:00,34.2,29.8,29.76,NNE,23,4.9,4.9,84,0.00,,,0.53,WUHU216HW,2013-03-10 05:00:00,
2013-03-09 23:05:00,34.2,29.8,29.76,North,0,5.6,5.6,84,0.00,,,0.53,WUHU216HW,2013-03-10 05:05:00,
2013-03-09 23:10:00,34.2,29.8,29.76,North,0,5.6,5.6,84,0.00,,,0.53,WUHU216HW,2013-03-10 05:10:00,
2013-03-09 23:30:00,34.2,29.8,29.77,North,0,1.6,1.6,84,0.00,,,0.53,WUHU216HW,2013-03-10 05:30:00,
2013-03-09 23:35:00,34.2,29.8,29.77,North,0,3.1,3.1,84,0.00,,,0.53,WUHU216HW,2013-03-10 05:35:00,
2013-03-09 23:40:00,34.2,29.8,29.77,North,0,3.1,3.1,84,0.00,,,0.53,WUHU216HW,2013-03-10 05:40:00,